This is the latest recevied weather packets stored in our database for station/object DL9BGG-13. If no packets are shown the sender has not sent any weather packets the latest 1 day(s).
| Time | Temp. | Humidity | Pressure | Rain* | Wind** | Luminosity | Snow |
|---|---|---|---|---|---|---|---|
| 1778018243 | 10° C | 85% | 1055.8 hPa | 0 mm | 2.24 m/s, 45° | - | - |
| 1778018154 | 10° C | 85% | 1055.8 hPa | 0 mm | 1.79 m/s, 45° | - | - |
| 1778018081 | 10° C | 85% | 1055.9 hPa | 0 mm | 1.79 m/s, 45° | - | - |
| 1778018016 | 10° C | 85% | 1055.9 hPa | 0 mm | 2.68 m/s, 22° | - | - |
| 1778017944 | 10° C | 85% | 1055.9 hPa | 0 mm | 5.81 m/s, 0° | - | - |
| 1778017879 | 10° C | 85% | 1055.8 hPa | 0 mm | 2.24 m/s, 67° | - | - |
| 1778017813 | 10° C | 85% | 1055.9 hPa | 0 mm | 3.13 m/s, 22° | - | - |
| 1778017750 | 10° C | 85% | 1055.9 hPa | 0 mm | 1.34 m/s, 22° | - | - |
| 1778017683 | 10° C | 85% | 1055.9 hPa | 0 mm | 2.24 m/s, 45° | - | - |
| 1778017617 | 10° C | 85% | 1056 hPa | 0 mm | 0 m/s | - | - |
| 1778017545 | 10° C | 85% | 1055.9 hPa | 0 mm | 4.02 m/s, 22° | - | - |
| 1778017474 | 10° C | 84% | 1056 hPa | 0 mm | 2.68 m/s, 22° | - | - |
| 1778017406 | 10° C | 84% | 1056 hPa | 0 mm | 1.79 m/s, 45° | - | - |
| 1778017202 | 10° C | 84% | 1056 hPa | 0 mm | 2.24 m/s, 45° | - | - |
| 1778017131 | 10° C | 84% | 1055.9 hPa | 0 mm | 0.89 m/s, 45° | - | - |
| 1778016995 | 10° C | 84% | 1056 hPa | 0 mm | 2.68 m/s, 22° | - | - |
| 1778016921 | 10° C | 84% | 1056 hPa | 0 mm | 3.58 m/s, 45° | - | - |
| 1778016848 | 10° C | 84% | 1056 hPa | 0 mm | 2.68 m/s, 45° | - | - |
| 1778016774 | 10° C | 84% | 1056 hPa | 0 mm | 4.47 m/s, 67° | - | - |
| 1778016701 | 10° C | 85% | 1056 hPa | 0 mm | 1.79 m/s, 45° | - | - |
| 1778016628 | 10° C | 85% | 1056 hPa | 0 mm | 2.68 m/s, 45° | - | - |
| 1778016547 | 10° C | 85% | 1056.1 hPa | 0 mm | 2.24 m/s, 67° | - | - |
| 1778016474 | 10° C | 85% | 1056 hPa | 0 mm | 2.24 m/s, 67° | - | - |
| 1778016401 | 10° C | 85% | 1056 hPa | 0 mm | 1.34 m/s, 45° | - | - |
| 1778016328 | 10° C | 85% | 1056 hPa | 0 mm | 4.47 m/s, 22° | - | - |
* Rain latest hour (hover to see other rain measurements)
** Current wind speed in m/s (hover to see current wind gust speed)